Time,TemperatureF,DewpointF,PressureIn,WindDirection,WindDirectionDegrees,WindSpeedMPH,WindSpeedGustMPH,Humidity,HourlyPrecipIn,Conditions,Clouds,dailyrainin,SoftwareType,DateUTC
2013-01-25 00:00:00,19.7,4.9,30.51,West,279,1.0,14.0,52,0.00,,,0.00,Wunderground v.1.15,2013-01-25 05:00:00,
2013-01-25 00:05:00,19.7,4.9,30.51,NW,323,2.0,14.0,52,0.00,,,0.00,Wunderground v.1.15,2013-01-25 05:05:00,
2013-01-25 00:10:00,19.5,4.7,30.51,WNW,285,2.0,2.0,52,0.00,,,0.00,Wunderground v.1.15,2013-01-25 05:10:00,
2013-01-25 00:15:00,19.4,4.6,30.51,West,281,2.0,14.0,52,0.00,,,0.00,Wunderground v.1.15,2013-01-25 05:15:00,
2013-01-25 00:20:00,19.3,4.5,30.51,NW,320,2.0,14.0,52,0.00,,,0.00,Wunderground v.1.15,2013-01-25 05:20:00,
2013-01-25 00:25:00,19.4,4.6,30.51,NW,318,3.0,14.0,52,0.00,,,0.00,Wunderground v.1.15,2013-01-25 05:25:00,
2013-01-25 00:30:00,19.3,4.5,30.50,NW,304,2.0,2.0,52,0.00,,,0.00,Wunderground v.1.15,2013-01-25 05:30:00,
2013-01-25 00:35:00,19.2,4.4,30.51,NNW,342,2.0,14.0,52,0.00,,,0.00,Wunderground v.1.15,2013-01-25 05:35:00,
2013-01-25 00:40:00,19.1,4.8,30.50,NNW,342,1.0,1.0,53,0.00,,,0.00,Wunderground v.1.15,2013-01-25 05:40:00,
2013-01-25 00:45:00,19.1,4.3,30.50,NW,309,1.0,14.0,52,0.00,,,0.00,Wunderground v.1.15,2013-01-25 05:45:00,
2013-01-25 00:50:00,19.0,4.2,30.51,NW,325,2.0,2.0,52,0.00,,,0.00,Wunderground v.1.15,2013-01-25 05:50:00,
2013-01-25 00:55:00,19.0,4.7,30.50,NW,314,2.0,14.0,53,0.00,,,0.00,Wunderground v.1.15,2013-01-25 05:55:00,
2013-01-25 01:00:00,18.9,4.1,30.50,WNW,296,2.0,2.0,52,0.00,,,0.00,Wunderground v.1.15,2013-01-25 06:00:00,
2013-01-25 01:05:00,18.8,4.1,30.50,WNW,302,2.0,3.0,52,0.00,,,0.00,Wunderground v.1.15,2013-01-25 06:05:00,
2013-01-25 01:10:00,18.8,4.1,30.50,NW,307,2.0,2.0,52,0.00,,,0.00,Wunderground v.1.15,2013-01-25 06:10:00,
2013-01-25 01:15:00,18.7,4.4,30.50,West,280,3.0,4.0,53,0.00,,,0.00,Wunderground v.1.15,2013-01-25 06:15:00,
2013-01-25 01:20:00,18.7,4.0,30.50,NNW,330,3.0,14.0,52,0.00,,,0.00,Wunderground v.1.15,2013-01-25 06:20:00,
2013-01-25 01:30:00,18.6,3.9,30.50,WNW,303,3.0,3.0,52,0.00,,,0.00,Wunderground v.1.15,2013-01-25 06:30:00,
2013-01-25 01:35:00,18.6,4.3,30.51,WNW,287,2.0,14.0,53,0.00,,,0.00,Wunderground v.1.15,2013-01-25 06:35:00,
2013-01-25 01:40:00,18.6,4.3,30.50,WNW,288,1.0,1.0,53,0.00,,,0.00,Wunderground v.1.15,2013-01-25 06:40:00,
2013-01-25 01:45:00,18.4,4.1,30.50,WNW,288,1.0,14.0,53,0.00,,,0.00,Wunderground v.1.15,2013-01-25 06:45:00,
2013-01-25 01:55:00,18.3,3.6,30.50,NW,315,2.0,14.0,52,0.00,,,0.00,Wunderground v.1.15,2013-01-25 06:55:00,
2013-01-25 02:00:00,18.4,3.7,30.50,NW,310,1.0,14.0,52,0.00,,,0.00,Wunderground v.1.15,2013-01-25 07:00:00,
2013-01-25 02:05:00,18.3,4.0,30.50,NW,311,1.0,14.0,53,0.00,,,0.00,Wunderground v.1.15,2013-01-25 07:05:00,
2013-01-25 02:10:00,18.2,3.5,30.51,NNW,344,1.0,1.0,52,0.00,,,0.00,Wunderground v.1.15,2013-01-25 07:10:00,
2013-01-25 02:15:00,18.2,3.5,30.51,WNW,302,2.0,3.0,52,0.00,,,0.00,Wunderground v.1.15,2013-01-25 07:15:00,
2013-01-25 02:20:00,18.2,3.9,30.50,NNW,337,2.0,2.0,53,0.00,,,0.00,Wunderground v.1.15,2013-01-25 07:20:00,
2013-01-25 02:25:00,18.1,3.8,30.50,NW,323,1.0,14.0,53,0.00,,,0.00,Wunderground v.1.15,2013-01-25 07:25:00,
2013-01-25 02:35:00,18.0,3.7,30.49,NNW,332,1.0,3.0,53,0.00,,,0.00,Wunderground v.1.15,2013-01-25 07:35:00,
2013-01-25 02:40:00,18.0,3.7,30.49,NNW,330,1.0,14.0,53,0.00,,,0.00,Wunderground v.1.15,2013-01-25 07:40:00,
2013-01-25 02:45:00,17.9,4.0,30.49,NNW,330,0.0,14.0,54,0.00,,,0.00,Wunderground v.1.15,2013-01-25 07:45:00,
2013-01-25 02:55:00,17.9,4.0,30.49,NNW,330,1.0,14.0,54,0.00,,,0.00,Wunderground v.1.15,2013-01-25 07:55:00,
2013-01-25 03:00:00,17.9,4.0,30.49,NNW,329,1.0,14.0,54,0.00,,,0.00,Wunderground v.1.15,2013-01-25 08:00:00,
2013-01-25 03:05:00,17.9,4.0,30.49,NNW,329,1.0,14.0,54,0.00,,,0.00,Wunderground v.1.15,2013-01-25 08:05:00,
2013-01-25 03:10:00,17.9,4.0,30.49,NW,315,1.0,14.0,54,0.00,,,0.00,Wunderground v.1.15,2013-01-25 08:10:00,
2013-01-25 03:15:00,17.8,4.3,30.48,NW,317,2.0,14.0,55,0.00,,,0.00,Wunderground v.1.15,2013-01-25 08:15:00,
2013-01-25 03:20:00,17.7,4.6,30.48,NW,320,1.0,14.0,56,0.00,,,0.00,Wunderground v.1.15,2013-01-25 08:20:00,
2013-01-25 03:30:00,17.6,4.5,30.48,NNW,344,1.0,14.0,56,0.00,,,0.00,Wunderground v.1.15,2013-01-25 08:30:00,
2013-01-25 03:35:00,17.5,4.5,30.48,NNW,344,1.0,14.0,56,0.00,,,0.00,Wunderground v.1.15,2013-01-25 08:35:00,
2013-01-25 03:40:00,17.5,4.5,30.48,NNW,344,0.0,14.0,56,0.00,,,0.00,Wunderground v.1.15,2013-01-25 08:40:00,
2013-01-25 03:45:00,17.5,4.8,30.47,NNW,345,1.0,14.0,57,0.00,,,0.00,Wunderground v.1.15,2013-01-25 08:45:00,
2013-01-25 03:50:00,17.5,5.2,30.47,NNW,345,1.0,14.0,58,0.00,,,0.00,Wunderground v.1.15,2013-01-25 08:50:00,
2013-01-25 04:00:00,17.6,5.7,30.48,NNW,345,0.0,14.0,59,0.00,,,0.00,Wunderground v.1.15,2013-01-25 09:00:00,
2013-01-25 04:05:00,17.6,4.9,30.48,NNW,345,0.0,14.0,57,0.00,,,0.00,Wunderground v.1.15,2013-01-25 09:05:00,
2013-01-25 04:10:00,17.5,4.8,30.48,NNW,345,0.0,14.0,57,0.00,,,0.00,Wunderground v.1.15,2013-01-25 09:10:00,
2013-01-25 04:15:00,17.4,4.7,30.48,NNW,344,1.0,14.0,57,0.00,,,0.00,Wunderground v.1.15,2013-01-25 09:15:00,
2013-01-25 04:20:00,17.5,4.8,30.48,NNW,344,1.0,14.0,57,0.00,,,0.00,Wunderground v.1.15,2013-01-25 09:20:00,
2013-01-25 04:25:00,17.5,4.8,30.48,NNW,344,1.0,14.0,57,0.00,,,0.00,Wunderground v.1.15,2013-01-25 09:25:00,
2013-01-25 04:35:00,17.5,4.1,30.47,NNW,330,2.0,2.0,55,0.00,,,0.00,Wunderground v.1.15,2013-01-25 09:35:00,
2013-01-25 04:40:00,17.5,4.5,30.47,NNW,331,2.0,14.0,56,0.00,,,0.00,Wunderground v.1.15,2013-01-25 09:40:00,
2013-01-25 04:45:00,17.5,4.1,30.47,NNW,340,2.0,14.0,55,0.00,,,0.00,Wunderground v.1.15,2013-01-25 09:45:00,
2013-01-25 04:50:00,17.5,4.5,30.47,NNW,339,2.0,14.0,56,0.00,,,0.00,Wunderground v.1.15,2013-01-25 09:50:00,
2013-01-25 04:55:00,17.6,4.5,30.48,NNW,337,1.0,14.0,56,0.00,,,0.00,Wunderground v.1.15,2013-01-25 09:55:00,
2013-01-25 05:00:00,17.6,4.5,30.48,NNW,340,2.0,14.0,56,0.00,,,0.00,Wunderground v.1.15,2013-01-25 10:00:00,
2013-01-25 05:10:00,17.6,4.2,30.48,North,350,1.0,1.0,55,0.00,,,0.00,Wunderground v.1.15,2013-01-25 10:10:00,
2013-01-25 05:15:00,17.6,4.2,30.48,NW,306,1.0,14.0,55,0.00,,,0.00,Wunderground v.1.15,2013-01-25 10:15:00,
2013-01-25 05:20:00,17.6,4.9,30.48,North,355,2.0,2.0,57,0.00,,,0.00,Wunderground v.1.15,2013-01-25 10:20:00,
2013-01-25 05:25:00,17.7,5.4,30.49,North,355,1.0,14.0,58,0.00,,,0.00,Wunderground v.1.15,2013-01-25 10:25:00,
2013-01-25 05:30:00,17.7,4.6,30.48,NNW,333,1.0,14.0,56,0.00,,,0.00,Wunderground v.1.15,2013-01-25 10:30:00,
2013-01-25 05:35:00,17.6,4.5,30.48,NNW,331,2.0,14.0,56,0.00,,,0.00,Wunderground v.1.15,2013-01-25 10:35:00,
2013-01-25 05:45:00,17.7,4.6,30.47,NNW,334,1.0,14.0,56,0.00,,,0.00,Wunderground v.1.15,2013-01-25 10:45:00,
2013-01-25 05:50:00,17.7,4.6,30.47,NNW,334,1.0,1.0,56,0.00,,,0.00,Wunderground v.1.15,2013-01-25 10:50:00,
2013-01-25 05:55:00,17.7,5.0,30.47,NNW,335,0.0,14.0,57,0.00,,,0.00,Wunderground v.1.15,2013-01-25 10:55:00,
2013-01-25 06:00:00,17.8,5.5,30.48,NNW,335,1.0,1.0,58,0.00,,,0.00,Wunderground v.1.15,2013-01-25 11:00:00,
2013-01-25 06:05:00,17.8,4.7,30.48,NNW,334,1.0,2.0,56,0.00,,,0.00,Wunderground v.1.15,2013-01-25 11:05:00,
2013-01-25 06:15:00,18.2,8.1,30.47,NNW,335,0.0,14.0,64,0.00,,,0.00,Wunderground v.1.15,2013-01-25 11:15:00,
2013-01-25 06:20:00,18.4,5.7,30.46,NNW,334,0.0,14.0,57,0.00,,,0.00,Wunderground v.1.15,2013-01-25 11:20:00,
2013-01-25 06:25:00,18.6,7.7,30.46,NNW,335,0.0,14.0,62,0.00,,,0.00,Wunderground v.1.15,2013-01-25 11:25:00,
2013-01-25 06:30:00,18.4,5.3,30.45,NNW,334,0.0,14.0,56,0.00,,,0.00,Wunderground v.1.15,2013-01-25 11:30:00,
2013-01-25 06:35:00,18.4,7.5,30.46,NNW,335,0.0,14.0,62,0.00,,,0.00,Wunderground v.1.15,2013-01-25 11:35:00,
2013-01-25 06:40:00,18.5,5.8,30.47,NNW,334,0.0,14.0,57,0.00,,,0.00,Wunderground v.1.15,2013-01-25 11:40:00,
2013-01-25 06:50:00,18.7,9.2,30.46,NNW,335,0.0,14.0,66,0.00,,,0.00,Wunderground v.1.15,2013-01-25 11:50:00,
2013-01-25 06:55:00,18.7,6.4,30.47,NNW,334,0.0,14.0,58,0.00,,,0.00,Wunderground v.1.15,2013-01-25 11:55:00,
2013-01-25 07:00:00,18.5,6.5,30.46,NNW,334,0.0,14.0,59,0.00,,,0.00,Wunderground v.1.15,2013-01-25 12:00:00,
2013-01-25 07:05:00,18.6,8.8,30.46,NNW,334,0.0,14.0,65,0.00,,,0.00,Wunderground v.1.15,2013-01-25 12:05:00,
2013-01-25 07:10:00,18.7,6.0,30.45,NNW,335,0.0,14.0,57,0.00,,,0.00,Wunderground v.1.15,2013-01-25 12:10:00,
2013-01-25 07:15:00,18.4,5.7,30.46,NNW,335,0.0,14.0,57,0.00,,,0.00,Wunderground v.1.15,2013-01-25 12:15:00,
2013-01-25 07:25:00,18.1,5.4,30.47,NNW,334,0.0,14.0,57,0.00,,,0.00,Wunderground v.1.15,2013-01-25 12:25:00,
2013-01-25 07:30:00,18.1,9.6,30.46,NNW,334,0.0,14.0,69,0.00,,,0.00,Wunderground v.1.15,2013-01-25 12:30:00,
2013-01-25 07:35:00,18.8,11.3,30.46,NNW,335,0.0,14.0,72,0.00,,,0.00,Wunderground v.1.15,2013-01-25 12:35:00,
2013-01-25 07:40:00,19.9,12.3,30.45,NNW,334,0.0,14.0,72,0.00,,,0.00,Wunderground v.1.15,2013-01-25 12:40:00,
2013-01-25 07:45:00,20.6,9.6,30.46,NNW,335,0.0,14.0,62,0.00,,,0.00,Wunderground v.1.15,2013-01-25 12:45:00,
2013-01-25 07:50:00,19.7,7.3,30.45,NNW,334,0.0,14.0,58,0.00,,,0.00,Wunderground v.1.15,2013-01-25 12:50:00,
2013-01-25 08:00:00,18.6,7.0,30.46,NNW,335,0.0,14.0,60,0.00,,,0.00,Wunderground v.1.15,2013-01-25 13:00:00,
2013-01-25 08:05:00,18.5,6.5,30.46,NNW,334,0.0,14.0,59,0.00,,,0.00,Wunderground v.1.15,2013-01-25 13:05:00,
2013-01-25 08:10:00,18.5,7.3,30.46,NNW,334,0.0,14.0,61,0.00,,,0.00,Wunderground v.1.15,2013-01-25 13:10:00,
2013-01-25 08:15:00,18.8,7.6,30.45,NNW,334,0.0,14.0,61,0.00,,,0.00,Wunderground v.1.15,2013-01-25 13:15:00,
2013-01-25 08:20:00,18.7,6.0,30.46,NNW,335,0.0,14.0,57,0.00,,,0.00,Wunderground v.1.15,2013-01-25 13:20:00,
2013-01-25 08:25:00,18.8,6.4,30.45,NNW,334,0.0,14.0,58,0.00,,,0.00,Wunderground v.1.15,2013-01-25 13:25:00,
2013-01-25 08:35:00,18.7,5.6,30.45,NNW,334,0.0,14.0,56,0.00,,,0.00,Wunderground v.1.15,2013-01-25 13:35:00,
2013-01-25 08:40:00,18.8,4.9,30.45,NNW,335,0.0,14.0,54,0.00,,,0.00,Wunderground v.1.15,2013-01-25 13:40:00,
2013-01-25 08:45:00,18.8,6.8,30.44,NNW,334,0.0,14.0,59,0.00,,,0.00,Wunderground v.1.15,2013-01-25 13:45:00,
2013-01-25 08:50:00,19.4,6.2,30.44,NNW,335,0.0,14.0,56,0.00,,,0.00,Wunderground v.1.15,2013-01-25 13:50:00,
2013-01-25 08:55:00,19.7,8.4,30.44,NNW,334,0.0,14.0,61,0.00,,,0.00,Wunderground v.1.15,2013-01-25 13:55:00,
2013-01-25 09:00:00,20.2,7.0,30.44,NNW,334,0.0,14.0,56,0.00,,,0.00,Wunderground v.1.15,2013-01-25 14:00:00,
2013-01-25 09:10:00,20.5,8.8,30.42,NNW,334,0.0,14.0,60,0.00,,,0.00,Wunderground v.1.15,2013-01-25 14:10:00,
2013-01-25 09:15:00,21.1,7.4,30.42,NNW,335,0.0,14.0,55,0.00,,,0.00,Wunderground v.1.15,2013-01-25 14:15:00,
2013-01-25 09:20:00,21.5,9.0,30.42,NNW,334,0.0,14.0,58,0.00,,,0.00,Wunderground v.1.15,2013-01-25 14:20:00,
2013-01-25 09:25:00,21.8,6.8,30.41,NNW,335,0.0,14.0,52,0.00,,,0.00,Wunderground v.1.15,2013-01-25 14:25:00,
2013-01-25 09:30:00,22.0,8.3,30.41,NNW,334,0.0,14.0,55,0.00,,,0.00,Wunderground v.1.15,2013-01-25 14:30:00,
2013-01-25 09:40:00,22.3,9.7,30.40,NNW,335,0.0,14.0,58,0.00,,,0.00,Wunderground v.1.15,2013-01-25 14:40:00,
2013-01-25 09:45:00,22.8,10.2,30.40,NNW,334,0.0,14.0,58,0.00,,,0.00,Wunderground v.1.15,2013-01-25 14:45:00,
2013-01-25 09:50:00,23.1,8.9,30.40,NNW,334,0.0,14.0,54,0.00,,,0.00,Wunderground v.1.15,2013-01-25 14:50:00,
2013-01-25 09:55:00,23.1,7.2,30.41,NE,34,0.0,14.0,50,0.00,,,0.00,Wunderground v.1.15,2013-01-25 14:55:00,
2013-01-25 10:00:00,22.5,6.2,30.41,NE,49,1.0,1.0,49,0.00,,,0.00,Wunderground v.1.15,2013-01-25 15:00:00,
2013-01-25 10:05:00,21.9,6.5,30.41,NE,50,1.0,14.0,51,0.00,,,0.00,Wunderground v.1.15,2013-01-25 15:05:00,
2013-01-25 10:15:00,21.6,4.9,30.40,NE,50,0.0,14.0,48,0.00,,,0.00,Wunderground v.1.15,2013-01-25 15:15:00,
2013-01-25 10:20:00,21.4,5.2,30.40,ENE,71,1.0,14.0,49,0.00,,,0.00,Wunderground v.1.15,2013-01-25 15:20:00,
2013-01-25 10:25:00,21.5,5.7,30.40,ENE,71,1.0,14.0,50,0.00,,,0.00,Wunderground v.1.15,2013-01-25 15:25:00,
2013-01-25 10:30:00,22.0,6.6,30.40,ENE,71,0.0,14.0,51,0.00,,,0.00,Wunderground v.1.15,2013-01-25 15:30:00,
2013-01-25 10:35:00,22.2,7.2,30.39,ENE,71,0.0,14.0,52,0.00,,,0.00,Wunderground v.1.15,2013-01-25 15:35:00,
2013-01-25 10:45:00,22.1,7.1,30.39,ENE,71,0.0,14.0,52,0.00,,,0.00,Wunderground v.1.15,2013-01-25 15:45:00,
2013-01-25 10:50:00,22.0,5.3,30.38,SSE,168,1.0,14.0,48,0.00,,,0.00,Wunderground v.1.15,2013-01-25 15:50:00,
2013-01-25 10:55:00,21.7,3.6,30.38,South,170,1.0,14.0,45,0.00,,,0.00,Wunderground v.1.15,2013-01-25 15:55:00,
2013-01-25 11:00:00,21.7,4.5,30.37,SSE,161,1.0,14.0,47,0.00,,,0.00,Wunderground v.1.15,2013-01-25 16:00:00,
2013-01-25 11:05:00,21.9,5.6,30.37,SSE,162,0.0,14.0,49,0.00,,,0.00,Wunderground v.1.15,2013-01-25 16:05:00,
2013-01-25 11:10:00,22.0,5.3,30.37,SSE,161,0.0,14.0,48,0.00,,,0.00,Wunderground v.1.15,2013-01-25 16:10:00,
2013-01-25 11:20:00,22.3,5.1,30.37,SSE,161,0.0,14.0,47,0.00,,,0.00,Wunderground v.1.15,2013-01-25 16:20:00,
2013-01-25 11:25:00,22.3,5.1,30.37,SSW,213,1.0,14.0,47,0.00,,,0.00,Wunderground v.1.15,2013-01-25 16:25:00,
2013-01-25 11:30:00,22.0,4.8,30.36,SSW,200,1.0,14.0,47,0.00,,,0.00,Wunderground v.1.15,2013-01-25 16:30:00,
2013-01-25 11:35:00,22.0,4.8,30.36,SSW,200,2.0,14.0,47,0.00,,,0.00,Wunderground v.1.15,2013-01-25 16:35:00,
2013-01-25 11:40:00,22.2,5.9,30.36,SSW,200,2.0,2.0,49,0.00,,,0.00,Wunderground v.1.15,2013-01-25 16:40:00,
2013-01-25 11:50:00,22.5,7.1,30.35,SSW,200,1.0,1.0,51,0.00,,,0.00,Wunderground v.1.15,2013-01-25 16:50:00,
2013-01-25 11:55:00,22.3,5.1,30.35,SSW,210,1.0,3.0,47,0.00,,,0.00,Wunderground v.1.15,2013-01-25 16:55:00,
2013-01-25 12:00:00,22.2,5.0,30.34,SSW,210,1.0,1.0,47,0.00,,,0.00,Wunderground v.1.15,2013-01-25 17:00:00,
2013-01-25 12:05:00,22.3,5.6,30.33,SSW,210,1.0,14.0,48,0.00,,,0.00,Wunderground v.1.15,2013-01-25 17:05:00,
2013-01-25 12:10:00,22.4,6.5,30.33,SSW,210,0.0,14.0,50,0.00,,,0.00,Wunderground v.1.15,2013-01-25 17:10:00,
2013-01-25 12:15:00,22.4,6.5,30.32,SSW,210,0.0,14.0,50,0.00,,,0.00,Wunderground v.1.15,2013-01-25 17:15:00,
2013-01-25 12:25:00,22.6,6.7,30.32,SSW,194,1.0,14.0,50,0.00,,,0.00,Wunderground v.1.15,2013-01-25 17:25:00,
2013-01-25 12:30:00,22.4,6.1,30.31,SE,139,1.0,14.0,49,0.00,,,0.00,Wunderground v.1.15,2013-01-25 17:30:00,
2013-01-25 12:35:00,22.2,5.9,30.31,SSW,208,2.0,14.0,49,0.00,,,0.00,Wunderground v.1.15,2013-01-25 17:35:00,
2013-01-25 12:40:00,22.3,7.7,30.30,SW,232,1.0,14.0,53,0.00,,,0.00,Wunderground v.1.15,2013-01-25 17:40:00,
2013-01-25 12:50:00,22.6,7.6,30.28,East,94,1.0,14.0,52,0.00,,,0.00,Wunderground v.1.15,2013-01-25 17:50:00,
2013-01-25 13:00:00,22.6,7.6,30.28,SSE,161,1.0,1.0,52,0.00,,,0.00,Wunderground v.1.15,2013-01-25 18:00:00,
2013-01-25 13:05:00,22.7,7.7,30.26,SSW,209,1.0,14.0,52,0.00,,,0.00,Wunderground v.1.15,2013-01-25 18:05:00,
2013-01-25 13:10:00,22.8,8.2,30.27,South,188,1.0,14.0,53,0.00,,,0.00,Wunderground v.1.15,2013-01-25 18:10:00,
2013-01-25 13:15:00,22.7,7.7,30.26,South,183,1.0,14.0,52,0.00,,,0.00,Wunderground v.1.15,2013-01-25 18:15:00,
2013-01-25 13:20:00,22.7,8.5,30.25,SSW,202,1.0,1.0,54,0.00,,,0.00,Wunderground v.1.15,2013-01-25 18:20:00,
2013-01-25 13:25:00,22.8,7.8,30.25,SSE,155,1.0,14.0,52,0.00,,,0.00,Wunderground v.1.15,2013-01-25 18:25:00,
2013-01-25 13:35:00,22.6,8.4,30.24,SSW,195,1.0,14.0,54,0.00,,,0.00,Wunderground v.1.15,2013-01-25 18:35:00,
2013-01-25 13:40:00,22.6,8.0,30.23,SSW,192,2.0,14.0,53,0.00,,,0.00,Wunderground v.1.15,2013-01-25 18:40:00,
2013-01-25 13:45:00,22.6,8.0,30.22,SSW,192,1.0,14.0,53,0.00,,,0.00,Wunderground v.1.15,2013-01-25 18:45:00,
2013-01-25 13:50:00,22.8,8.2,30.22,SSW,192,1.0,1.0,53,0.00,,,0.00,Wunderground v.1.15,2013-01-25 18:50:00,
2013-01-25 13:55:00,22.9,7.9,30.22,SSW,208,1.0,14.0,52,0.00,,,0.00,Wunderground v.1.15,2013-01-25 18:55:00,
2013-01-25 14:00:00,22.7,7.7,30.22,South,173,1.0,1.0,52,0.00,,,0.00,Wunderground v.1.15,2013-01-25 19:00:00,
2013-01-25 14:10:00,22.6,8.4,30.22,South,170,2.0,2.0,54,0.00,,,0.00,Wunderground v.1.15,2013-01-25 19:10:00,
2013-01-25 14:15:00,22.4,10.2,30.21,South,170,1.0,14.0,59,0.00,,,0.00,Wunderground v.1.15,2013-01-25 19:15:00,
2013-01-25 14:20:00,22.4,11.0,30.20,SE,130,0.0,14.0,61,0.00,,,0.00,Wunderground v.1.15,2013-01-25 19:20:00,
2013-01-25 14:25:00,21.8,11.5,30.20,SSW,197,2.0,14.0,64,0.00,,,0.00,Wunderground v.1.15,2013-01-25 19:25:00,
2013-01-25 14:30:00,21.5,12.2,30.20,SE,140,3.0,3.0,67,0.00,,,0.00,Wunderground v.1.15,2013-01-25 19:30:00,
2013-01-25 14:35:00,21.1,13.2,30.19,SSE,157,2.0,14.0,71,0.00,,,0.00,Wunderground v.1.15,2013-01-25 19:35:00,
2013-01-25 14:40:00,20.8,13.5,30.19,SSE,157,2.0,2.0,73,0.00,,,0.00,Wunderground v.1.15,2013-01-25 19:40:00,
2013-01-25 14:50:00,20.4,14.3,30.18,SW,221,2.0,14.0,77,0.00,,,0.00,Wunderground v.1.15,2013-01-25 19:50:00,
2013-01-25 14:55:00,20.3,14.2,30.18,South,178,2.0,14.0,77,0.00,,,0.00,Wunderground v.1.15,2013-01-25 19:55:00,
2013-01-25 15:00:00,20.4,14.3,30.18,South,190,2.0,2.0,77,0.00,,,0.00,Wunderground v.1.15,2013-01-25 20:00:00,
2013-01-25 15:10:00,20.4,14.0,30.19,SSW,199,1.0,1.0,76,0.00,,,0.00,Wunderground v.1.15,2013-01-25 20:10:00,
2013-01-25 15:20:00,21.0,14.3,30.19,SSW,207,1.0,1.0,75,0.00,,,0.00,Wunderground v.1.15,2013-01-25 20:20:00,
2013-01-25 15:25:00,21.0,13.7,30.18,SSW,194,1.0,14.0,73,0.00,,,0.00,Wunderground v.1.15,2013-01-25 20:25:00,
2013-01-25 15:30:00,21.0,14.0,30.18,South,188,1.0,1.0,74,0.00,,,0.00,Wunderground v.1.15,2013-01-25 20:30:00,
2013-01-25 15:35:00,21.2,14.5,30.18,South,188,1.0,14.0,75,0.00,,,0.00,Wunderground v.1.15,2013-01-25 20:35:00,
2013-01-25 16:05:00,20.9,15.1,30.18,South,169,0.0,14.0,78,0.00,,,0.00,Wunderground v.1.15,2013-01-25 21:05:00,
2013-01-25 16:10:00,20.9,15.1,30.17,SE,133,0.0,14.0,78,0.00,,,0.00,Wunderground v.1.15,2013-01-25 21:10:00,
2013-01-25 16:20:00,20.6,15.1,30.17,South,190,1.0,14.0,79,0.00,,,0.00,Wunderground v.1.15,2013-01-25 21:20:00,
2013-01-25 16:25:00,20.5,15.6,30.17,SW,225,1.0,14.0,81,0.00,,,0.00,Wunderground v.1.15,2013-01-25 21:25:00,
2013-01-25 16:30:00,20.4,15.5,30.16,SW,225,1.0,14.0,81,0.00,,,0.00,Wunderground v.1.15,2013-01-25 21:30:00,
2013-01-25 16:35:00,20.2,15.9,30.16,SW,225,1.0,14.0,83,0.00,,,0.00,Wunderground v.1.15,2013-01-25 21:35:00,
2013-01-25 16:40:00,20.1,16.0,30.16,SW,225,0.0,14.0,84,0.00,,,0.00,Wunderground v.1.15,2013-01-25 21:40:00,
2013-01-25 16:45:00,20.0,15.9,30.16,SW,224,0.0,14.0,84,0.00,,,0.00,Wunderground v.1.15,2013-01-25 21:45:00,
2013-01-25 16:55:00,20.2,16.4,30.15,SW,224,0.0,14.0,85,0.00,,,0.00,Wunderground v.1.15,2013-01-25 21:55:00,
2013-01-25 17:00:00,20.2,16.7,30.14,SW,224,0.0,14.0,86,0.00,,,0.00,Wunderground v.1.15,2013-01-25 22:00:00,
2013-01-25 17:05:00,20.1,16.6,30.15,SW,224,0.0,14.0,86,0.00,,,0.00,Wunderground v.1.15,2013-01-25 22:05:00,
2013-01-25 17:10:00,20.0,16.8,30.15,SW,224,0.0,14.0,87,0.00,,,0.00,Wunderground v.1.15,2013-01-25 22:10:00,
2013-01-25 17:15:00,20.0,17.0,30.15,SSW,212,0.0,14.0,88,0.00,,,0.00,Wunderground v.1.15,2013-01-25 22:15:00,
2013-01-25 17:20:00,20.0,17.0,30.14,SSW,212,0.0,14.0,88,0.00,,,0.00,Wunderground v.1.15,2013-01-25 22:20:00,
2013-01-25 17:30:00,20.2,17.5,30.13,SSW,212,0.0,14.0,89,0.00,,,0.00,Wunderground v.1.15,2013-01-25 22:30:00,
2013-01-25 17:35:00,20.3,17.6,30.13,SSW,212,0.0,14.0,89,0.00,,,0.00,Wunderground v.1.15,2013-01-25 22:35:00,
2013-01-25 17:40:00,19.9,16.9,30.13,SSW,212,0.0,14.0,88,0.00,,,0.00,Wunderground v.1.15,2013-01-25 22:40:00,
2013-01-25 17:45:00,19.7,16.7,30.12,SSW,211,0.0,14.0,88,0.00,,,0.00,Wunderground v.1.15,2013-01-25 22:45:00,
2013-01-25 17:50:00,19.7,17.0,30.12,SSW,212,0.0,14.0,89,0.00,,,0.00,Wunderground v.1.15,2013-01-25 22:50:00,
2013-01-25 17:55:00,19.7,17.0,30.12,SSW,212,0.0,14.0,89,0.00,,,0.00,Wunderground v.1.15,2013-01-25 22:55:00,
2013-01-25 18:05:00,19.7,17.0,30.12,SSW,212,0.0,14.0,89,0.00,,,0.00,Wunderground v.1.15,2013-01-25 23:05:00,
2013-01-25 18:10:00,19.7,17.0,30.12,SSW,211,0.0,14.0,89,0.00,,,0.00,Wunderground v.1.15,2013-01-25 23:10:00,
2013-01-25 18:15:00,19.7,17.0,30.12,South,183,0.0,14.0,89,0.00,,,0.00,Wunderground v.1.15,2013-01-25 23:15:00,
2013-01-25 18:20:00,19.7,17.0,30.11,South,183,0.0,14.0,89,0.00,,,0.00,Wunderground v.1.15,2013-01-25 23:20:00,
2013-01-25 18:25:00,19.7,17.0,30.12,South,183,0.0,14.0,89,0.00,,,0.00,Wunderground v.1.15,2013-01-25 23:25:00,
2013-01-25 18:30:00,19.8,17.3,30.12,South,183,0.0,14.0,90,0.00,,,0.00,Wunderground v.1.15,2013-01-25 23:30:00,
2013-01-25 18:35:00,20.0,17.3,30.12,South,183,0.0,14.0,89,0.00,,,0.00,Wunderground v.1.15,2013-01-25 23:35:00,
2013-01-25 18:45:00,20.0,17.3,30.12,South,183,0.0,14.0,89,0.00,,,0.00,Wunderground v.1.15,2013-01-25 23:45:00,
2013-01-25 18:50:00,20.2,17.7,30.11,South,183,0.0,14.0,90,0.00,,,0.00,Wunderground v.1.15,2013-01-25 23:50:00,
2013-01-25 18:55:00,20.4,17.9,30.11,South,183,0.0,14.0,90,0.00,,,0.00,Wunderground v.1.15,2013-01-25 23:55:00,
2013-01-25 19:00:00,20.5,18.0,30.11,South,183,0.0,14.0,90,0.00,,,0.00,Wunderground v.1.15,2013-01-26 00:00:00,
2013-01-25 19:05:00,20.5,17.8,30.11,South,183,0.0,14.0,89,0.00,,,0.00,Wunderground v.1.15,2013-01-26 00:05:00,
2013-01-25 19:15:00,20.6,18.1,30.11,South,183,0.0,14.0,90,0.00,,,0.00,Wunderground v.1.15,2013-01-26 00:15:00,
2013-01-25 19:20:00,20.5,17.5,30.11,South,184,0.0,14.0,88,0.00,,,0.00,Wunderground v.1.15,2013-01-26 00:20:00,
2013-01-25 19:25:00,20.5,17.5,30.11,South,184,1.0,14.0,88,0.00,,,0.00,Wunderground v.1.15,2013-01-26 00:25:00,
2013-01-25 19:30:00,20.5,17.5,30.11,South,184,1.0,14.0,88,0.00,,,0.00,Wunderground v.1.15,2013-01-26 00:30:00,
2013-01-25 19:35:00,20.5,17.5,30.10,South,184,1.0,14.0,88,0.00,,,0.00,Wunderground v.1.15,2013-01-26 00:35:00,
2013-01-25 19:40:00,20.6,17.6,30.10,South,183,1.0,1.0,88,0.00,,,0.00,Wunderground v.1.15,2013-01-26 00:40:00,
2013-01-25 19:50:00,20.7,17.7,30.09,South,184,1.0,1.0,88,0.00,,,0.00,Wunderground v.1.15,2013-01-26 00:50:00,
2013-01-25 19:55:00,20.7,17.7,30.09,South,184,1.0,2.0,88,0.00,,,0.00,Wunderground v.1.15,2013-01-26 00:55:00,
2013-01-25 20:00:00,20.8,17.8,30.09,SW,223,1.0,1.0,88,0.00,,,0.00,Wunderground v.1.15,2013-01-26 01:00:00,
2013-01-25 20:05:00,21.0,18.0,30.09,SSW,210,1.0,14.0,88,0.00,,,0.00,Wunderground v.1.15,2013-01-26 01:05:00,
2013-01-25 20:10:00,20.9,17.6,30.09,SSW,211,1.0,1.0,87,0.00,,,0.00,Wunderground v.1.15,2013-01-26 01:10:00,
2013-01-25 20:20:00,20.8,17.5,30.09,SSW,211,1.0,1.0,87,0.00,,,0.00,Wunderground v.1.15,2013-01-26 01:20:00,
2013-01-25 20:25:00,20.9,17.6,30.09,SSW,211,1.0,14.0,87,0.00,,,0.00,Wunderground v.1.15,2013-01-26 01:25:00,
2013-01-25 20:30:00,21.0,18.0,30.09,SSW,211,0.0,14.0,88,0.00,,,0.00,Wunderground v.1.15,2013-01-26 01:30:00,
2013-01-25 20:35:00,21.0,17.7,30.09,SSW,211,1.0,14.0,87,0.00,,,0.00,Wunderground v.1.15,2013-01-26 01:35:00,
2013-01-25 20:40:00,21.0,17.7,30.09,SSW,211,1.0,1.0,87,0.00,,,0.00,Wunderground v.1.15,2013-01-26 01:40:00,
2013-01-25 20:45:00,21.0,17.7,30.08,SSW,211,0.0,14.0,87,0.00,,,0.00,Wunderground v.1.15,2013-01-26 01:45:00,
2013-01-25 20:55:00,21.2,18.2,30.08,SSW,211,0.0,14.0,88,0.00,,,0.00,Wunderground v.1.15,2013-01-26 01:55:00,
2013-01-25 21:00:00,21.2,17.9,30.08,SSW,211,1.0,14.0,87,0.00,,,0.00,Wunderground v.1.15,2013-01-26 02:00:00,
2013-01-25 21:05:00,21.2,17.9,30.08,SSW,211,1.0,14.0,87,0.00,,,0.00,Wunderground v.1.15,2013-01-26 02:05:00,
2013-01-25 21:10:00,21.3,18.0,30.08,SSW,211,0.0,14.0,87,0.00,,,0.00,Wunderground v.1.15,2013-01-26 02:10:00,
2013-01-25 21:15:00,21.4,18.1,30.08,SSW,211,0.0,14.0,87,0.00,,,0.00,Wunderground v.1.15,2013-01-26 02:15:00,
2013-01-25 21:20:00,21.3,17.8,30.08,SSW,211,1.0,1.0,86,0.00,,,0.00,Wunderground v.1.15,2013-01-26 02:20:00,
2013-01-25 21:30:00,21.5,18.2,30.08,SSW,211,0.0,14.0,87,0.00,,,0.00,Wunderground v.1.15,2013-01-26 02:30:00,
2013-01-25 21:35:00,21.4,17.9,30.08,SSW,211,1.0,14.0,86,0.00,,,0.00,Wunderground v.1.15,2013-01-26 02:35:00,
2013-01-25 21:40:00,21.4,17.9,30.08,SSW,195,2.0,2.0,86,0.00,,,0.00,Wunderground v.1.15,2013-01-26 02:40:00,
2013-01-25 21:45:00,21.4,17.9,30.08,SSW,197,2.0,14.0,86,0.00,,,0.00,Wunderground v.1.15,2013-01-26 02:45:00,
2013-01-25 21:50:00,21.3,17.8,30.08,SW,236,2.0,2.0,86,0.00,,,0.00,Wunderground v.1.15,2013-01-26 02:50:00,
2013-01-25 21:55:00,21.4,17.9,30.07,SW,229,1.0,14.0,86,0.00,,,0.00,Wunderground v.1.15,2013-01-26 02:55:00,
2013-01-25 22:00:00,21.5,18.0,30.07,SW,229,0.0,14.0,86,0.00,,,0.00,Wunderground v.1.15,2013-01-26 03:00:00,
2013-01-25 22:10:00,21.5,18.0,30.07,SW,229,0.0,14.0,86,0.00,,,0.00,Wunderground v.1.15,2013-01-26 03:10:00,
2013-01-25 22:15:00,21.7,18.4,30.07,SW,229,0.0,14.0,87,0.00,,,0.00,Wunderground v.1.15,2013-01-26 03:15:00,
2013-01-25 22:20:00,21.6,18.1,30.08,SW,229,1.0,14.0,86,0.00,,,0.00,Wunderground v.1.15,2013-01-26 03:20:00,
2013-01-25 22:25:00,21.5,18.0,30.08,SW,229,1.0,14.0,86,0.00,,,0.00,Wunderground v.1.15,2013-01-26 03:25:00,
2013-01-25 22:30:00,21.5,18.0,30.08,SW,229,1.0,14.0,86,0.00,,,0.00,Wunderground v.1.15,2013-01-26 03:30:00,
2013-01-25 22:35:00,21.6,18.1,30.08,SW,229,0.0,14.0,86,0.00,,,0.00,Wunderground v.1.15,2013-01-26 03:35:00,
2013-01-25 22:45:00,21.7,18.2,30.07,SW,229,0.0,14.0,86,0.00,,,0.00,Wunderground v.1.15,2013-01-26 03:45:00,
2013-01-25 22:50:00,21.6,17.8,30.07,SW,234,1.0,1.0,85,0.00,,,0.00,Wunderground v.1.15,2013-01-26 03:50:00,
2013-01-25 22:55:00,21.6,18.1,30.07,SW,234,1.0,14.0,86,0.00,,,0.00,Wunderground v.1.15,2013-01-26 03:55:00,
2013-01-25 23:00:00,21.6,18.1,30.08,SW,234,1.0,1.0,86,0.00,,,0.00,Wunderground v.1.15,2013-01-26 04:00:00,
2013-01-25 23:05:00,21.6,18.1,30.08,SW,234,1.0,14.0,86,0.00,,,0.00,Wunderground v.1.15,2013-01-26 04:05:00,
2013-01-25 23:10:00,21.7,18.2,30.08,SSW,198,1.0,14.0,86,0.00,,,0.00,Wunderground v.1.15,2013-01-26 04:10:00,
2013-01-25 23:20:00,21.7,18.2,30.08,SSW,198,1.0,1.0,86,0.00,,,0.00,Wunderground v.1.15,2013-01-26 04:20:00,
2013-01-25 23:25:00,21.8,18.3,30.08,SSW,198,1.0,14.0,86,0.00,,,0.00,Wunderground v.1.15,2013-01-26 04:25:00,
2013-01-25 23:30:00,21.8,18.3,30.08,SSW,198,1.0,1.0,86,0.00,,,0.00,Wunderground v.1.15,2013-01-26 04:30:00,
2013-01-25 23:35:00,21.8,18.3,30.08,SSW,198,1.0,14.0,86,0.00,,,0.00,Wunderground v.1.15,2013-01-26 04:35:00,
2013-01-25 23:40:00,21.8,18.3,30.08,SSW,198,1.0,1.0,86,0.00,,,0.00,Wunderground v.1.15,2013-01-26 04:40:00,
2013-01-25 23:45:00,21.9,18.4,30.08,SSW,198,1.0,14.0,86,0.00,,,0.00,Wunderground v.1.15,2013-01-26 04:45:00,
2013-01-25 23:55:00,21.9,18.4,30.09,SW,221,1.0,14.0,86,0.00,,,0.00,Wunderground v.1.15,2013-01-26 04:55:00,